Weather History for Laconia, NH

Change the Weather History Date:

Thursday, April 3, 2014

  Actual Average Record
Temperature  
Mean Temperature 35 °F -  
Max Temperature 46 °F 47 °F 67 °F (1988)
Min Temperature 24 °F 29 °F 20 °F (1978)
Degree Days  
Heating Degree Days 30    
Moisture  
Dew Point 21 °F    
Average Humidity 59    
Maximum Humidity 93    
Minimum Humidity 34    
Precipitation  
Precipitation 0.00 in - - ()
Sea Level Pressure  
Sea Level Pressure 30.07 in    
Wind  
Wind Speed 4 mph (WNW)    
Max Wind Speed 18 mph    
Max Gust Speed 25 mph    
Visibility 10 miles    
Events      
Averages and records for this station are not official NWS values.
T = Trace of Precipitation, MM = Missing Value Source: NWS Daily Summary

Daily Weather History Graph

Daily Weather History Graph

Search for Another Location

Airport:

Trip Planner

Search our weather history database for the weather conditions in past years. The results will help you decide how hot, cold, wet, or windy it might be!

Date:

Astronomy

Apr. 03, 2014 Rise Set
Actual Time 6:23 AM EDT 7:14 PM EDT
Civil Twilight 5:54 AM EDT 7:43 PM EDT
Nautical Twilight 5:20 AM EDT 8:18 PM EDT
Astronomical Twilight 4:44 AM EDT 8:54 PM EDT
Moon 8:44 AM EDT (4/3) 11:37 PM EDT (4/3)
Length of Visible Light 13h 49m
Length of Day
12h 50m
Waxing Crescent, 17% of the Moon is Illuminated
Apr 3
Waxing Crescent
Apr 7
First Quarter
Apr 15
Full
Apr 22
Last Quarter
Apr 29
New

Hourly Weather History & Observations

Time (EDT) Temp. Windchill Dew Point Humidity Pressure Visibility Wind Dir Wind Speed Gust Speed Precip Events Conditions
12:15 AM 28.4 °F - 24.8 °F 86% 30.04 in 10.0 mi Calm Calm - N/A   Clear
12:35 AM 28.4 °F - 24.8 °F 86% 30.03 in 10.0 mi Calm Calm - N/A   Clear
12:55 AM 28.4 °F - 24.8 °F 86% 30.03 in 10.0 mi Calm Calm - N/A   Clear
1:15 AM 28.4 °F - 24.8 °F 86% 30.03 in 10.0 mi Calm Calm - N/A   Clear
1:35 AM 26.6 °F - 24.8 °F 93% 30.03 in 10.0 mi Calm Calm - N/A   Clear
1:55 AM 26.6 °F - 23.0 °F 86% 30.03 in 10.0 mi Calm Calm - N/A   Clear
2:15 AM 26.6 °F - 24.8 °F 93% 30.03 in 10.0 mi Calm Calm - N/A   Clear
2:35 AM 26.6 °F - 23.0 °F 86% 30.03 in 10.0 mi Calm Calm - N/A   Clear
2:55 AM 26.6 °F 20.0 °F 24.8 °F 93% 30.03 in 10.0 mi WSW 5.8 mph - N/A   Clear
3:15 AM 26.6 °F 22.6 °F 24.8 °F 93% 30.03 in 10.0 mi WSW 3.5 mph - N/A   Clear
3:35 AM 26.6 °F 20.0 °F 24.8 °F 93% 30.03 in 10.0 mi WSW 5.8 mph - N/A   Clear
3:55 AM 26.6 °F 22.6 °F 24.8 °F 93% 30.03 in 10.0 mi WSW 3.5 mph - N/A   Clear
4:15 AM 26.6 °F 22.6 °F 24.8 °F 93% 30.03 in 10.0 mi West 3.5 mph - N/A   Clear
4:35 AM 26.6 °F 22.6 °F 21.2 °F 80% 30.04 in 10.0 mi SW 3.5 mph - N/A   Clear
4:55 AM 24.8 °F - 21.2 °F 86% 30.05 in 10.0 mi Calm Calm - N/A   Clear
5:15 AM 26.6 °F - 23.0 °F 86% 30.05 in 10.0 mi Calm Calm - N/A   Clear
5:35 AM 26.6 °F - 21.2 °F 80% 30.05 in 10.0 mi Calm Calm - N/A   Clear
5:55 AM 26.6 °F - 21.2 °F 80% 30.05 in 10.0 mi Calm Calm - N/A   Clear
6:15 AM 24.8 °F - 21.2 °F 86% 30.05 in 10.0 mi Calm Calm - N/A   Clear
6:35 AM 24.8 °F - 21.2 °F 86% 30.06 in 10.0 mi Calm Calm - N/A   Clear
6:55 AM 26.6 °F - 23.0 °F 86% 30.07 in 10.0 mi Calm Calm - N/A   Clear
7:15 AM 26.6 °F 22.6 °F 23.0 °F 86% 30.07 in 10.0 mi SW 3.5 mph - N/A   Clear
7:35 AM 30.2 °F 23.4 °F 24.8 °F 80% 30.08 in 10.0 mi SW 6.9 mph - N/A   Clear
7:55 AM 33.8 °F 27.7 °F 24.8 °F 70% 30.08 in 10.0 mi WSW 6.9 mph - N/A   Clear
8:15 AM 35.6 °F 31.7 °F 24.8 °F 65% 30.09 in 10.0 mi West 4.6 mph - N/A   Clear
8:35 AM 39.2 °F 34.2 °F 24.8 °F 56% 30.10 in 10.0 mi NNW 6.9 mph - N/A   Clear
8:55 AM 39.2 °F 35.0 °F 21.2 °F 49% 30.10 in 10.0 mi NW 5.8 mph - N/A   Clear
9:15 AM 39.2 °F 34.2 °F 21.2 °F 49% 30.10 in 10.0 mi WNW 6.9 mph - N/A   Clear
9:35 AM 39.2 °F 35.0 °F 19.4 °F 45% 30.10 in 10.0 mi WNW 5.8 mph - N/A   Clear
9:55 AM 39.2 °F 35.0 °F 19.4 °F 45% 30.09 in 10.0 mi NNW 5.8 mph - N/A   Clear
10:15 AM 39.2 °F 33.0 °F 17.6 °F 42% 30.09 in 10.0 mi West 9.2 mph 17.3 mph N/A   Clear
10:35 AM 41.0 °F 35.2 °F 19.4 °F 42% 30.10 in 10.0 mi WNW 9.2 mph 17.3 mph N/A   Clear
10:55 AM 41.0 °F 37.1 °F 19.4 °F 42% 30.10 in 10.0 mi West 5.8 mph - N/A   Clear
11:15 AM 42.8 °F 36.6 °F 19.4 °F 39% 30.10 in 10.0 mi WNW 11.5 mph 18.4 mph N/A   Clear
11:35 AM 41.0 °F 33.1 °F 19.4 °F 42% 30.10 in 10.0 mi West 15.0 mph 23.0 mph N/A   Clear
11:55 AM 41.0 °F 32.8 °F 19.4 °F 42% 30.09 in 10.0 mi West 16.1 mph 21.9 mph N/A   Clear
12:15 PM 42.8 °F 34.5 °F 17.6 °F 36% 30.10 in 10.0 mi NNW 18.4 mph 25.3 mph N/A   Clear
12:35 PM 42.8 °F 38.0 °F 19.4 °F 39% 30.10 in 10.0 mi West 8.1 mph 19.6 mph N/A   Clear
12:55 PM 42.8 °F 38.6 °F 19.4 °F 39% 30.09 in 10.0 mi West 6.9 mph 16.1 mph N/A   Clear
1:15 PM 42.8 °F 37.0 °F 19.4 °F 39% 30.09 in 10.0 mi WNW 10.4 mph 18.4 mph N/A   Clear
1:35 PM 44.6 °F 39.2 °F 19.4 °F 37% 30.07 in 10.0 mi West 10.4 mph 18.4 mph N/A   Clear
1:55 PM 44.6 °F 39.2 °F 19.4 °F 37% 30.07 in 10.0 mi NW 10.4 mph 17.3 mph N/A   Clear
2:15 PM 44.6 °F 38.8 °F 19.4 °F 37% 30.08 in 10.0 mi West 11.5 mph 18.4 mph N/A   Clear
2:35 PM 44.6 °F 39.2 °F 19.4 °F 37% 30.07 in 10.0 mi NNW 10.4 mph - N/A   Clear
2:55 PM 46.4 °F 42.4 °F 21.2 °F 37% 30.07 in 10.0 mi West 8.1 mph 17.3 mph N/A   Clear
3:15 PM 46.4 °F 42.9 °F 21.2 °F 37% 30.07 in 10.0 mi WNW 6.9 mph 16.1 mph N/A   Clear
3:35 PM 44.6 °F 39.2 °F 19.4 °F 37% 30.08 in 10.0 mi WNW 10.4 mph 17.3 mph N/A   Clear
3:55 PM 46.4 °F 41.5 °F 21.2 °F 37% 30.07 in 10.0 mi West 10.4 mph 17.3 mph N/A   Clear
4:15 PM 46.4 °F 41.9 °F 21.2 °F 37% 30.07 in 10.0 mi West 9.2 mph - N/A   Clear
4:35 PM 46.4 °F 41.9 °F 21.2 °F 37% 30.07 in 10.0 mi NW 9.2 mph - N/A   Clear
4:55 PM 46.4 °F 42.4 °F 21.2 °F 37% 30.06 in 10.0 mi NW 8.1 mph 16.1 mph N/A   Clear
5:15 PM 46.4 °F 40.7 °F 19.4 °F 34% 30.07 in 10.0 mi NW 12.7 mph - N/A   Clear
5:35 PM 44.6 °F 39.7 °F 19.4 °F 37% 30.07 in 10.0 mi NNW 9.2 mph 17.3 mph N/A   Clear
5:55 PM 46.4 °F 41.5 °F 19.4 °F 34% 30.07 in 10.0 mi NW 10.4 mph - N/A   Clear
6:15 PM 44.6 °F 39.2 °F 19.4 °F 37% 30.07 in 10.0 mi WNW 10.4 mph - N/A   Clear
6:35 PM 44.6 °F 40.2 °F 19.4 °F 37% 30.08 in 10.0 mi WNW 8.1 mph - N/A   Clear
6:55 PM 44.6 °F 41.4 °F 19.4 °F 37% 30.08 in 10.0 mi WNW 5.8 mph - N/A   Clear
7:15 PM 42.8 °F - 19.4 °F 39% 30.08 in 10.0 mi Calm Calm - N/A   Clear
7:35 PM 39.2 °F 35.9 °F 21.2 °F 49% 30.09 in 10.0 mi NNE 4.6 mph - N/A   Clear
7:55 PM 39.2 °F 37.0 °F 19.4 °F 45% 30.10 in 10.0 mi WNW 3.5 mph - N/A   Clear
8:15 PM 37.4 °F - 21.2 °F 52% 30.10 in 10.0 mi Calm Calm - N/A   Clear
8:35 PM 37.4 °F 33.8 °F 19.4 °F 48% 30.10 in 10.0 mi West 4.6 mph - N/A   Clear
8:55 PM 35.6 °F - 21.2 °F 56% 30.10 in 10.0 mi Calm Calm - N/A   Clear
9:15 PM 33.8 °F - 21.2 °F 60% 30.10 in 10.0 mi Calm Calm - N/A   Clear
9:35 PM 33.8 °F - 21.2 °F 60% 30.12 in 10.0 mi Calm Calm - N/A   Clear
9:55 PM 33.8 °F - 21.2 °F 60% 30.12 in 10.0 mi Calm Calm - N/A   Clear
10:15 PM 33.8 °F - 21.2 °F 60% 30.12 in 10.0 mi Calm Calm - N/A   Clear
10:35 PM 32.0 °F - 21.2 °F 64% 30.13 in 10.0 mi Calm Calm - N/A   Clear
11:55 PM 30.2 °F - 21.2 °F 69% 30.15 in 10.0 mi Calm Calm - N/A   Clear